User: anonymous   Login
Location: Unspecified
(0.0000°N, 0.0000°E)
Time: 01:42:44
(UTC+02:00)
Language:

Cosmos 1758 - Orbit

View from above orbital plane
View from above orbital plane
View from above satellite
View from above satellite

Ground track
Ground track

The orbit data is extracted from the following two-line orbital elements,

1 16791U 86046A   17112.92876382 +.00001392 +00000-0 +97593-4 0  9997
2 16791 082.4690 085.9124 0015086 278.6808 081.2709 15.04376082677095
Epoch (UTC): 22 April 2017 22:17:25
Eccentricity: 0.0015086
inclination: 82.4690°
perigee height: 543 km
apogee height: 564 km
right ascension of ascending node: 85.9124°
argument of perigee: 278.6808°
revolutions per day: 15.04376082
mean anomaly at epoch: 81.2709°
orbit number at epoch: 67709

The dashed part of the orbit path shows where the satellite is in the earth's shadow,  

DLR